Time,TemperatureF,DewpointF,PressureIn,WindDirection,WindDirectionDegrees,WindSpeedMPH,WindSpeedGustMPH,Humidity,HourlyPrecipIn,Conditions,Clouds,dailyrainin,SoftwareType,DateUTC
2013-08-02 00:02:00,75.7,21.0,29.95,NE,36,0.0,-999.0,13,-99.99,,,0.00,weatherlink.com 1.10,2013-08-02 07:02:00,
2013-08-02 00:17:00,76.0,22.0,29.94,North,5,5.0,-999.0,13,-99.99,,,0.00,weatherlink.com 1.10,2013-08-02 07:17:00,
2013-08-02 00:32:00,75.5,19.0,29.94,NNE,12,3.0,-999.0,12,-99.99,,,0.00,weatherlink.com 1.10,2013-08-02 07:32:00,
2013-08-02 00:47:00,75.1,19.0,29.93,NE,40,3.0,-999.0,12,-99.99,,,0.00,weatherlink.com 1.10,2013-08-02 07:47:00,
2013-08-02 01:02:00,75.2,21.0,29.93,NE,37,1.0,-999.0,13,-99.99,,,0.00,weatherlink.com 1.10,2013-08-02 08:02:00,
2013-08-02 01:17:00,74.9,19.0,29.93,NNE,32,0.0,-999.0,12,-99.99,,,0.00,weatherlink.com 1.10,2013-08-02 08:17:00,
2013-08-02 01:32:00,74.1,22.0,29.93,NE,34,0.0,-999.0,14,-99.99,,,0.00,weatherlink.com 1.10,2013-08-02 08:32:00,
2013-08-02 01:47:00,72.7,19.0,29.93,NNE,27,1.0,-999.0,13,-99.99,,,0.00,weatherlink.com 1.10,2013-08-02 08:47:00,
2013-08-02 02:02:00,73.0,19.0,29.93,NE,36,0.0,-999.0,13,-99.99,,,0.00,weatherlink.com 1.10,2013-08-02 09:02:00,
2013-08-02 02:17:00,72.6,19.0,29.93,NW,317,0.0,-999.0,13,-99.99,,,0.00,weatherlink.com 1.10,2013-08-02 09:17:00,
2013-08-02 02:32:00,72.3,19.0,29.93,NNW,343,0.0,-999.0,13,-99.99,,,0.00,weatherlink.com 1.10,2013-08-02 09:32:00,
2013-08-02 03:02:00,70.7,22.0,29.93,NNW,346,0.0,-999.0,16,-99.99,,,0.00,weatherlink.com 1.10,2013-08-02 10:02:00,
2013-08-02 03:17:00,70.0,33.0,29.93,NNW,345,0.0,-999.0,25,-99.99,,,0.00,weatherlink.com 1.10,2013-08-02 10:17:00,
2013-08-02 03:32:00,68.4,27.0,29.93,NNW,346,0.0,-999.0,21,-99.99,,,0.00,weatherlink.com 1.10,2013-08-02 10:32:00,
2013-08-02 03:47:00,67.7,32.0,29.94,NNW,345,0.0,-999.0,27,-99.99,,,0.00,weatherlink.com 1.10,2013-08-02 10:47:00,
2013-08-02 04:02:00,67.0,33.0,29.93,NNW,346,0.0,-999.0,28,-99.99,,,0.00,weatherlink.com 1.10,2013-08-02 11:02:00,
2013-08-02 04:17:00,66.6,34.0,29.93,NNW,346,0.0,-999.0,30,-99.99,,,0.00,weatherlink.com 1.10,2013-08-02 11:17:00,
2013-08-02 04:32:00,66.8,34.0,29.93,NNW,346,0.0,-999.0,30,-99.99,,,0.00,weatherlink.com 1.10,2013-08-02 11:32:00,
2013-08-02 04:47:00,66.7,35.0,29.93,NNW,345,0.0,-999.0,31,-99.99,,,0.00,weatherlink.com 1.10,2013-08-02 11:47:00,
2013-08-02 05:02:00,66.7,35.0,29.93,NNW,345,0.0,-999.0,31,-99.99,,,0.00,weatherlink.com 1.10,2013-08-02 12:02:00,
2013-08-02 05:17:00,66.6,35.0,29.93,NNW,346,0.0,-999.0,31,-99.99,,,0.00,weatherlink.com 1.10,2013-08-02 12:17:00,
2013-08-02 05:32:00,66.7,34.0,29.93,NNW,346,0.0,-999.0,30,-99.99,,,0.00,weatherlink.com 1.10,2013-08-02 12:32:00,
2013-08-02 05:47:00,66.7,34.0,29.94,NNW,345,0.0,-999.0,30,-99.99,,,0.00,weatherlink.com 1.10,2013-08-02 12:47:00,
2013-08-02 06:02:00,66.1,34.0,29.94,NNW,345,0.0,-999.0,30,-99.99,,,0.00,weatherlink.com 1.10,2013-08-02 13:02:00,
2013-08-02 06:17:00,64.9,34.0,29.94,NNW,346,0.0,-999.0,32,-99.99,,,0.00,weatherlink.com 1.10,2013-08-02 13:17:00,
2013-08-02 06:32:00,63.8,36.0,29.94,NNW,346,0.0,-999.0,35,-99.99,,,0.00,weatherlink.com 1.10,2013-08-02 13:32:00,
2013-08-02 06:47:00,63.5,33.0,29.94,NNW,346,0.0,-999.0,32,-99.99,,,0.00,weatherlink.com 1.10,2013-08-02 13:47:00,
2013-08-02 07:02:00,63.7,34.0,29.94,NNW,346,0.0,-999.0,33,-99.99,,,0.00,weatherlink.com 1.10,2013-08-02 14:02:00,
2013-08-02 07:17:00,64.8,33.0,29.95,NNW,345,0.0,-999.0,31,-99.99,,,0.00,weatherlink.com 1.10,2013-08-02 14:17:00,
2013-08-02 07:32:00,65.7,36.0,29.95,NNW,346,0.0,-999.0,34,-99.99,,,0.00,weatherlink.com 1.10,2013-08-02 14:32:00,
2013-08-02 07:47:00,66.9,36.0,29.95,NNW,346,0.0,-999.0,32,-99.99,,,0.00,weatherlink.com 1.10,2013-08-02 14:47:00,
2013-08-02 08:02:00,69.0,36.0,29.96,NNE,15,0.0,-999.0,30,-99.99,,,0.00,weatherlink.com 1.10,2013-08-02 15:02:00,
2013-08-02 08:17:00,70.4,36.0,29.96,ENE,76,0.0,-999.0,28,-99.99,,,0.00,weatherlink.com 1.10,2013-08-02 15:17:00,
2013-08-02 08:32:00,71.5,36.0,29.97,ENE,75,0.0,-999.0,27,-99.99,,,0.00,weatherlink.com 1.10,2013-08-02 15:32:00,
2013-08-02 08:47:00,72.1,37.0,29.97,ESE,103,0.0,-999.0,28,-99.99,,,0.00,weatherlink.com 1.10,2013-08-02 15:47:00,
2013-08-02 09:02:00,72.8,38.0,29.97,ESE,114,0.0,-999.0,28,-99.99,,,0.00,weatherlink.com 1.10,2013-08-02 16:02:00,
2013-08-02 09:17:00,73.4,38.0,29.97,ESE,115,0.0,-999.0,28,-99.99,,,0.00,weatherlink.com 1.10,2013-08-02 16:17:00,
2013-08-02 09:32:00,73.5,39.0,29.97,ESE,111,0.0,-999.0,29,-99.99,,,0.00,weatherlink.com 1.10,2013-08-02 16:32:00,
2013-08-02 09:47:00,74.3,40.0,29.97,ESE,112,0.0,-999.0,29,-99.99,,,0.00,weatherlink.com 1.10,2013-08-02 16:47:00,
2013-08-02 10:02:00,73.4,43.0,29.97,SSE,148,0.0,-999.0,33,-99.99,,,0.00,weatherlink.com 1.10,2013-08-02 17:02:00,
2013-08-02 10:17:00,71.1,40.0,29.97,SSE,148,0.0,-999.0,33,-99.99,,,0.00,weatherlink.com 1.10,2013-08-02 17:17:00,
2013-08-02 10:32:00,71.5,41.0,29.98,SSE,150,0.0,-999.0,33,-99.99,,,0.00,weatherlink.com 1.10,2013-08-02 17:32:00,
2013-08-02 10:48:00,73.2,44.0,29.97,SSE,154,0.0,-999.0,35,-99.99,,,0.00,weatherlink.com 1.10,2013-08-02 17:48:00,
2013-08-02 11:03:00,73.0,41.0,29.97,SSE,160,0.0,-999.0,31,-99.99,,,0.00,weatherlink.com 1.10,2013-08-02 18:03:00,
2013-08-02 11:17:00,73.6,43.0,29.97,SSE,160,0.0,-999.0,33,-99.99,,,0.00,weatherlink.com 1.10,2013-08-02 18:17:00,
2013-08-02 11:33:00,74.0,41.0,29.97,SSW,211,0.0,-999.0,31,-99.99,,,0.00,weatherlink.com 1.10,2013-08-02 18:33:00,
2013-08-02 11:47:00,75.1,42.0,29.97,SSW,213,0.0,-999.0,30,-99.99,,,0.00,weatherlink.com 1.10,2013-08-02 18:47:00,
2013-08-02 12:03:00,75.6,43.0,29.96,SW,215,0.0,-999.0,31,-99.99,,,0.00,weatherlink.com 1.10,2013-08-02 19:03:00,
2013-08-02 12:18:00,75.4,48.0,29.96,SW,221,0.0,-999.0,38,-99.99,,,0.00,weatherlink.com 1.10,2013-08-02 19:18:00,
2013-08-02 12:33:00,76.5,47.0,29.95,SW,221,0.0,-999.0,35,-99.99,,,0.00,weatherlink.com 1.10,2013-08-02 19:33:00,
2013-08-02 12:48:00,76.9,49.0,29.95,SSW,200,0.0,-999.0,38,-99.99,,,0.00,weatherlink.com 1.10,2013-08-02 19:48:00,
2013-08-02 13:03:00,76.0,48.0,29.95,SSW,211,0.0,-999.0,37,-99.99,,,0.00,weatherlink.com 1.10,2013-08-02 20:03:00,
2013-08-02 13:17:00,76.0,52.0,29.95,SW,220,0.0,-999.0,44,-99.99,,,0.00,weatherlink.com 1.10,2013-08-02 20:17:00,
2013-08-02 13:33:00,75.0,46.0,29.95,SE,127,0.0,-999.0,35,-99.99,,,0.00,weatherlink.com 1.10,2013-08-02 20:33:00,
2013-08-02 13:47:00,76.8,53.0,29.95,SE,132,0.0,-999.0,43,-99.99,,,0.00,weatherlink.com 1.10,2013-08-02 20:47:00,
2013-08-02 14:02:00,74.8,53.0,29.95,SE,144,0.0,-999.0,46,-99.99,,,0.00,weatherlink.com 1.10,2013-08-02 21:02:00,
2013-08-02 14:17:00,73.1,52.0,29.95,South,171,0.0,-999.0,47,-99.99,,,0.00,weatherlink.com 1.10,2013-08-02 21:17:00,
2013-08-02 14:33:00,72.9,51.0,29.95,South,176,0.0,-999.0,46,-99.99,,,0.00,weatherlink.com 1.10,2013-08-02 21:33:00,
2013-08-02 14:48:00,74.7,47.0,29.94,South,175,0.0,-999.0,37,-99.99,,,0.00,weatherlink.com 1.10,2013-08-02 21:48:00,
2013-08-02 15:02:00,75.2,54.0,29.95,SSW,192,0.0,-999.0,47,-99.99,,,0.00,weatherlink.com 1.10,2013-08-02 22:02:00,
2013-08-02 15:18:00,74.7,54.0,29.95,SSW,196,0.0,-999.0,48,-99.99,,,0.00,weatherlink.com 1.10,2013-08-02 22:18:00,
2013-08-02 15:33:00,73.3,52.0,29.94,SSW,197,0.0,-999.0,47,-99.99,,,0.00,weatherlink.com 1.10,2013-08-02 22:33:00,
2013-08-02 15:48:00,73.0,54.0,29.93,SSW,198,0.0,-999.0,51,-99.99,,,0.00,weatherlink.com 1.10,2013-08-02 22:48:00,
2013-08-02 16:03:00,72.5,53.0,29.94,SSW,200,0.0,-999.0,51,-99.99,,,0.00,weatherlink.com 1.10,2013-08-02 23:03:00,
2013-08-02 16:18:00,72.4,54.0,29.94,SSW,200,0.0,-999.0,52,-99.99,,,0.00,weatherlink.com 1.10,2013-08-02 23:18:00,
2013-08-02 16:33:00,70.5,53.0,29.94,SSW,200,0.0,-999.0,54,-99.99,,,0.00,weatherlink.com 1.10,2013-08-02 23:33:00,
2013-08-02 16:47:00,71.2,53.0,29.94,SSW,201,0.0,-999.0,53,-99.99,,,0.00,weatherlink.com 1.10,2013-08-02 23:47:00,
2013-08-02 17:03:00,71.3,54.0,29.94,SSW,202,0.0,-999.0,54,-99.99,,,0.00,weatherlink.com 1.10,2013-08-03 00:03:00,
2013-08-02 17:18:00,71.6,53.0,29.93,SSW,202,0.0,-999.0,53,-99.99,,,0.00,weatherlink.com 1.10,2013-08-03 00:18:00,
2013-08-02 17:47:00,69.3,50.0,29.93,SSW,210,0.0,-999.0,50,-99.99,,,0.00,weatherlink.com 1.10,2013-08-03 00:47:00,
2013-08-02 18:02:00,70.0,50.0,29.93,SW,216,0.0,-999.0,49,-99.99,,,0.00,weatherlink.com 1.10,2013-08-03 01:02:00,
2013-08-02 18:17:00,68.3,50.0,29.93,SW,216,0.0,-999.0,52,-99.99,,,0.00,weatherlink.com 1.10,2013-08-03 01:17:00,
2013-08-02 18:32:00,67.4,51.0,29.92,SW,218,0.0,-999.0,56,-99.99,,,0.00,weatherlink.com 1.10,2013-08-03 01:32:00,
2013-08-02 18:47:00,67.5,52.0,29.92,SW,218,0.0,-999.0,58,-99.99,,,0.00,weatherlink.com 1.10,2013-08-03 01:47:00,
2013-08-02 19:02:00,66.3,51.0,29.92,SW,218,0.0,-999.0,58,-99.99,,,0.00,weatherlink.com 1.10,2013-08-03 02:02:00,
2013-08-02 19:17:00,67.0,52.0,29.92,SW,218,0.0,-999.0,58,-99.99,,,0.00,weatherlink.com 1.10,2013-08-03 02:17:00,
2013-08-02 19:32:00,66.5,50.0,29.92,SW,218,0.0,-999.0,56,-99.99,,,0.00,weatherlink.com 1.10,2013-08-03 02:32:00,
2013-08-02 19:47:00,64.4,50.0,29.92,SW,218,1.0,-999.0,59,-99.99,,,0.00,weatherlink.com 1.10,2013-08-03 02:47:00,
2013-08-02 20:02:00,64.9,49.0,29.92,SW,218,0.0,-999.0,56,-99.99,,,0.00,weatherlink.com 1.10,2013-08-03 03:02:00,
2013-08-02 20:17:00,65.8,48.0,29.92,SW,218,0.0,-999.0,53,-99.99,,,0.00,weatherlink.com 1.10,2013-08-03 03:17:00,
2013-08-02 20:32:00,66.3,46.0,29.93,SW,218,0.0,-999.0,49,-99.99,,,0.00,weatherlink.com 1.10,2013-08-03 03:32:00,
2013-08-02 20:47:00,66.9,42.0,29.93,SW,218,0.0,-999.0,41,-99.99,,,0.00,weatherlink.com 1.10,2013-08-03 03:47:00,
2013-08-02 21:02:00,67.9,41.0,29.93,SW,218,0.0,-999.0,37,-99.99,,,0.00,weatherlink.com 1.10,2013-08-03 04:02:00,
2013-08-02 21:17:00,69.0,41.0,29.94,SW,218,0.0,-999.0,36,-99.99,,,0.00,weatherlink.com 1.10,2013-08-03 04:17:00,
2013-08-02 21:32:00,69.6,37.0,29.94,SW,218,0.0,-999.0,30,-99.99,,,0.00,weatherlink.com 1.10,2013-08-03 04:32:00,
2013-08-02 21:47:00,69.9,38.0,29.94,SW,218,0.0,-999.0,31,-99.99,,,0.00,weatherlink.com 1.10,2013-08-03 04:47:00,
2013-08-02 22:02:00,69.8,39.0,29.95,SW,218,0.0,-999.0,33,-99.99,,,0.00,weatherlink.com 1.10,2013-08-03 05:02:00,
2013-08-02 22:17:00,70.3,36.0,29.95,SW,218,0.0,-999.0,28,-99.99,,,0.00,weatherlink.com 1.10,2013-08-03 05:17:00,
2013-08-02 22:32:00,70.6,36.0,29.95,SW,218,0.0,-999.0,28,-99.99,,,0.00,weatherlink.com 1.10,2013-08-03 05:32:00,
2013-08-02 22:47:00,70.2,32.0,29.95,SW,218,0.0,-999.0,24,-99.99,,,0.00,weatherlink.com 1.10,2013-08-03 05:47:00,
2013-08-02 23:02:00,70.2,32.0,29.95,SW,218,0.0,-999.0,24,-99.99,,,0.00,weatherlink.com 1.10,2013-08-03 06:02:00,
2013-08-02 23:17:00,69.7,32.0,29.95,SW,218,0.0,-999.0,25,-99.99,,,0.00,weatherlink.com 1.10,2013-08-03 06:17:00,
2013-08-02 23:32:00,69.3,33.0,29.94,SW,218,0.0,-999.0,26,-99.99,,,0.00,weatherlink.com 1.10,2013-08-03 06:32:00,
2013-08-02 23:47:00,69.1,34.0,29.95,SW,218,0.0,-999.0,27,-99.99,,,0.00,weatherlink.com 1.10,2013-08-03 06:47:00,